Showing default

PEARL-1A, 68990

Orbit data source: Space-Track

PEARL-1A, 68990 is a Taiwanese payload satellite in SSO that was launched on Sun, 03 May 2026 UTC via an FALCON 9 launch vehicle from the Air Force Western Test Range (AFWTR). Payload-class satellites include a variety of spacecraft equipped with specific instruments for various scientific and technological missions. These include communications satellites like Starlink; space stations such as the ISS; scientific satellites like the Hubble; Earth observation satellites from companies like Planet Labs, Umbra, and HawkEye 360; GPS; miniature CubeSats for education and research; and military/defense satellites.

Loading next visibility...
Identifier
68990, 2026-100L
Orbit
SSO
Country
Flag of TWTW / TWN
Related business
Manufacturer
Endurosat
Mission
Operational Commercial Communications
Bus & Motor
CUBESAT 6UXL, Unknown motor
Mass
8.8 kg wet, 8.8 kg dry
Launch date (UTC)
2026-05-03 (5 months ago)
Launch vehicle
FALCON 9
Launch site
Air Force Western Test Range (AFWTR)
Object type
Payload
Rocket body
Debris
Shape & HBR
Box + 2 Pan, 0.2 m
Radar Cross Section
0.080 m², Medium (>0.1 m² and < 1m²)

Expand to show TLE details & history
Last TLE update: 12 hours ago

TLE from 12 hours ago
0 PEARL-1A
1 68990U 26100L   26266.20754844  .00001319  00000-0  13829-3 0  9997
2 68990  97.7171 161.5213 0004912 182.7790 177.3402 14.91201776 21303
Epoch: 2026-09-23T04:58Z
TLE epoch observation values (Epoch: 2026-09-23T04:58:52.185Z)
Latitude
-0.00002°
Longitude
84.74188°
Altitude
600.651 km
Speed
7.557 km/s
True Right ascension
10h 46m 05s
True Declination
0° 00' 00"
Sunlit
Object was in daylight at epoch
Visualization orbit readout
Latitude
Unknown
Longitude
Unknown
Altitude
Unknown
Speed
Unknown
Apparent Right ascension
Unknown
Apparent Declination
Unknown
Sunlit
N/A
Visualization observer readout
Local Sidereal Time
09:55:19
Azimuth
Unknown
Elevation
Unknown
Doppler factor
Unknown
Orbital elements
Apogee altitude
594.628 km
Perigee altitude
587.782 km
Semi-major axis
6,969.342 km
Eccentricity
0.00049
Inclination
97.7171°
RAAN
161.5213°
Arg. of periapsis
182.779°
True anomaly
177.34281°
Mean anomaly
177.3402°
Eccentric anomaly
177.34151°
Mean motion
3.7304 °/min
Orbital period
96.5 mins
BSTAR
0.00013829
Loading maneuver chart data...
Computing Atmospheric mass density...
Loading historical data...
Loading historical data...
Loading historical data...
Loading historical data...
Loading historical data...
Loading historical data...
Loading historical data...

Documentation

Showing up to 5 results
|